Flag for Brazil Weather past 2 weeks in Santarém, Pará, Brazil

Now
88 °F

Passing clouds.


Feels Like: 98 °F
Forecast: 73 / 88 °F
Wind: 9 mph from Northeast

Location: Santarem-Aeroporto

Current Time: Aug 4, 2015 at 3:53:41 PM

Latest Report: Aug 4, 2015 at 3:00 PM


Visibility: N/A

Pressure: 29.89 "Hg

Humidity: 66%

Dew point: 75 °F

Location of SantarémLocation

Historic Weather in Santarém — Graph

°F

Santarém temperature yesterday

Maximum temperature yesterday: 88 °F (at 1:00 PM)
Minimum temperature yesterday: 73 °F (at 5:00 AM)
Average temperature yesterday: 80 °F

Past Weeks' High & Low Weather Summary

 TemperatureHumidityPressure
High88 °F (Jul 21, 2:00 PM)100% (Jul 20, 9:00 PM)30.01 "Hg (Jul 20, 9:00 PM)
Low37 °F (Jul 26, 5:00 AM)24% (Jul 30, 5:00 AM)29.80 "Hg (Aug 2, 4:00 PM)
Average79 °F86%29.90 "Hg
* Reported Jul 20 3:00 PM — Aug 4 3:00 PM, Santarém, Weather by CustomWeather, © 2015

Note: Actual official high and low records may vary slightly from our data, if they occured in-between our weather recording intervals... More about our weather records

Advertising

Santarém weather history for previous 24 hours

 ConditionsComfort  
Time TempWeatherWind HumidityBarometerVisibility
3:00 PM
Tue, Aug 4
88 °FPassing clouds.9 mph66%29.89 "HgN/A
2:00 PM88 °FPassing clouds.13 mph70%29.92 "HgN/A
1:00 PM88 °FScattered clouds.8 mph70%29.95 "HgN/A
12:00 PM86 °FPassing clouds.14 mph75%29.98 "HgN/A
11:00 AM84 °FScattered clouds.12 mph74%29.98 "HgN/A
10:00 AM84 °FScattered clouds.10 mph74%29.98 "HgN/A
9:00 AM82 °FScattered clouds.8 mph79%29.98 "HgN/A
8:00 AM81 °FScattered clouds.6 mph84%29.95 "HgN/A
7:00 AM79 °FPassing clouds.7 mph84%29.95 "HgN/A
6:00 AM79 °FPassing clouds.12 mph84%29.92 "HgN/A
5:00 AM73 °FThunderstorms. Passing clouds.No wind100%29.89 "HgN/A
4:00 AM73 °FClear.No wind100%29.89 "Hg10 mi
3:00 AM73 °FClear.No wind100%29.89 "Hg10 mi
2:00 AM75 °FClear.No wind94%29.92 "Hg10 mi
1:00 AM75 °FClear.No wind94%29.92 "Hg10 mi
12:00 AM75 °FClear.No wind94%29.92 "Hg10 mi
11:00 PM
Mon, Aug 3
75 °FClear.No wind100%29.92 "Hg10 mi
10:00 PM75 °FClear.No wind100%29.92 "Hg10 mi
9:00 PM77 °FClear.5 mph94%29.89 "Hg10 mi
8:00 PM77 °FClear.No wind94%29.86 "Hg10 mi
7:00 PM81 °FSunny.No wind84%29.86 "Hg10 mi
6:00 PM86 °FPassing clouds.6 mph70%29.86 "HgN/A
5:00 PM88 °FPassing clouds.9 mph66%29.86 "HgN/A
4:00 PM88 °FPassing clouds.7 mph70%29.86 "HgN/A
3:00 PM88 °FScattered clouds.13 mph70%29.89 "HgN/A
Weather by CustomWeather, © 2015

See weather overviewHow to use our weather pages